Zurück zum Katalog

STARLINK-37346

AktivKommunikationVLEO
NORAD 69149·PAYLOAD·🇺🇸 United States

Gestartet May 21, 2026 von Cape Canaveral Space Force Station

Loading…

Nächste Überflüge (nächste 24 Stunden)

TLE

AktuellSource: CelesTrak SupGP

Epoche: Sep 15, 2026, 03:21 UTC

1 69149C 26111B   26258.14006944 -.00021526  00000+0 -63651-3 0  2580
2 69149  53.1571  91.1161 0001247  83.4649 194.2153 15.34375749    14

Verfolge STARLINK-37346 in Echtzeit mit AllMySat

Download on the App Store